| time (UTC) | temp F | wind direction | speed MPH | gust MPH | rain 1hr in | rain 24hr in | rain mn in | humidity % | barometer mb |
| 20260507022626 | 58 | 28 | 2.0 | 6.0 | 0.00 | 0.00 | 0.00 | 59 | 1017.4 |
| 20260507022122 | 58 | 356 | 1.0 | 3.0 | 0.00 | 0.00 | 0.00 | 59 | 1017.5 |
| 20260507021619 | 58 | 7 | 3.0 | 3.0 | 0.00 | 0.00 | 0.00 | 59 | 1017.5 |
| 20260507021114 | 58 | 16 | 2.0 | 2.0 | 0.00 | 0.00 | 0.00 | 60 | 1017.2 |
| 20260507020613 | 58 | 5 | 1.0 | 3.0 | 0.00 | 0.00 | 0.00 | 59 | 1017.2 |
| 20260507020109 | 59 | 352 | 2.0 | 3.0 | 0.00 | 0.00 | 0.00 | 57 | 1017.3 |
| 20260507015607 | 59 | 355 | 3.0 | 6.0 | 0.00 | 0.00 | 0.00 | 58 | 1017.0 |
| 20260507015104 | 59 | 349 | 1.0 | 5.0 | 0.00 | 0.00 | 0.00 | 57 | 1017.0 |
| 20260507014601 | 59 | 352 | 2.0 | 5.0 | 0.00 | 0.00 | 0.00 | 57 | 1017.0 |
| 20260507014056 | 59 | 19 | 4.0 | 8.0 | 0.00 | 0.00 | 0.00 | 56 | 1016.9 |
| 20260507013553 | 60 | 52 | 3.0 | 5.0 | 0.00 | 0.00 | 0.00 | 57 | 1016.8 |
| 20260507013051 | 60 | 15 | 3.0 | 6.0 | 0.00 | 0.00 | 0.00 | 56 | 1016.6 |
| 20260507012548 | 60 | 355 | 4.0 | 6.0 | 0.00 | 0.00 | 0.00 | 56 | 1016.6 |
| 20260507012044 | 60 | 355 | 2.0 | 6.0 | 0.00 | 0.00 | 0.00 | 56 | 1016.7 |
| 20260507011542 | 60 | 339 | 3.0 | 5.0 | 0.00 | 0.00 | 0.00 | 55 | 1016.1 |
| 20260507011038 | 61 | 5 | 2.0 | 8.0 | 0.00 | 0.00 | 0.00 | 54 | 1016.1 |
| 20260507010532 | 61 | 61 | 4.0 | 8.0 | 0.00 | 0.00 | 0.00 | 54 | 1016.3 |
| 20260507010029 | 61 | 47 | 4.0 | 8.0 | 0.00 | 0.00 | 0.00 | 54 | 1016.1 |
| 20260507005526 | 62 | 30 | 3.0 | 8.0 | 0.00 | 0.00 | 0.00 | 54 | 1016.2 |
| 20260507005023 | 62 | 23 | 2.0 | 9.0 | 0.00 | 0.00 | 0.00 | 53 | 1016.2 |
| 20260507004520 | 62 | 29 | 6.0 | 8.0 | 0.00 | 0.00 | 0.00 | 53 | 1016.1 |
| 20260507004017 | 62 | 359 | 4.0 | 9.0 | 0.00 | 0.00 | 0.00 | 53 | 1016.2 |
| 20260507003512 | 62 | 357 | 4.0 | 6.0 | 0.00 | 0.00 | 0.00 | 53 | 1016.0 |
| 20260507003008 | 62 | 22 | 3.0 | 5.0 | 0.00 | 0.00 | 0.00 | 53 | 1016.2 |
| 20260507002504 | 63 | 24 | 5.0 | 9.0 | 0.00 | 0.00 | 0.00 | 52 | 1016.1 |
| 20260507002001 | 63 | 46 | 8.0 | 10.0 | 0.00 | 0.00 | 0.00 | 52 | 1016.0 |
| 20260507001457 | 63 | 347 | 5.0 | 10.0 | 0.00 | 0.00 | 0.00 | 52 | 1016.3 |
| 20260507000955 | 63 | 8 | 2.0 | 8.0 | 0.00 | 0.00 | 0.00 | 52 | 1016.0 |
| 20260507000450 | 63 | 354 | 5.0 | 9.0 | 0.00 | 0.00 | 0.00 | 52 | 1015.8 |
| 20260506235946 | 64 | 346 | 4.0 | 5.0 | 0.00 | 0.00 | 0.00 | 51 | 1016.0 |
| 20260506235444 | 64 | 3 | 5.0 | 8.0 | 0.00 | 0.00 | 0.00 | 51 | 1015.9 |
| 20260506234939 | 64 | 19 | 6.0 | 7.0 | 0.00 | 0.00 | 0.00 | 51 | 1015.9 |
| 20260506234437 | 64 | 0 | 3.0 | 8.0 | 0.00 | 0.00 | 0.00 | 51 | 1015.8 |
| 20260506233934 | 64 | 27 | 5.0 | 6.0 | 0.00 | 0.00 | 0.00 | 51 | 1015.8 |
| 20260506233431 | 64 | 37 | 4.0 | 6.0 | 0.00 | 0.00 | 0.00 | 51 | 1015.9 |
| 20260506232927 | 64 | 35 | 8.0 | 11.0 | 0.00 | 0.00 | 0.00 | 51 | 1015.7 |
| 20260506232424 | 64 | 330 | 5.0 | 8.0 | 0.00 | 0.00 | 0.00 | 50 | 1015.6 |
| 20260506231919 | 64 | 21 | 5.0 | 13.0 | 0.00 | 0.00 | 0.00 | 50 | 1015.5 |
| 20260506231417 | 64 | 9 | 3.0 | 8.0 | 0.00 | 0.00 | 0.00 | 51 | 1015.7 |
| 20260506230915 | 64 | 336 | 3.0 | 7.0 | 0.00 | 0.00 | 0.00 | 50 | 1015.4 |
| 20260506230411 | 65 | 332 | 2.0 | 8.0 | 0.00 | 0.00 | 0.00 | 52 | 1015.7 |
| 20260506225907 | 65 | 71 | 5.0 | 7.0 | 0.00 | 0.00 | 0.00 | 51 | 1015.4 |
| 20260506225405 | 65 | 11 | 3.0 | 6.0 | 0.00 | 0.00 | 0.00 | 50 | 1015.3 |
| 20260506224901 | 64 | 346 | 3.0 | 10.0 | 0.00 | 0.00 | 0.00 | 51 | 1015.6 |
| 20260506224359 | 65 | 24 | 3.0 | 8.0 | 0.00 | 0.00 | 0.00 | 52 | 1015.3 |
| 20260506223855 | 64 | 73 | 3.0 | 8.0 | 0.00 | 0.00 | 0.00 | 52 | 1015.3 |
| 20260506223350 | 64 | 347 | 4.0 | 9.0 | 0.00 | 0.00 | 0.00 | 52 | 1015.2 |
| 20260506222848 | 63 | 31 | 4.0 | 10.0 | 0.00 | 0.00 | 0.00 | 53 | 1015.3 |
| 20260506222343 | 65 | 331 | 2.0 | 9.0 | 0.00 | 0.00 | 0.00 | 53 | 1015.0 |
| 20260506221841 | 65 | 30 | 6.0 | 10.0 | 0.00 | 0.00 | 0.00 | 53 | 1014.8 |
| 20260506221339 | 65 | 350 | 4.0 | 9.0 | 0.00 | 0.00 | 0.00 | 53 | 1015.0 |
| 20260506220836 | 64 | 334 | 6.0 | 9.0 | 0.00 | 0.00 | 0.00 | 53 | 1015.0 |
| 20260506220331 | 64 | 70 | 3.0 | 9.0 | 0.00 | 0.00 | 0.00 | 54 | 1015.4 |
| 20260506215828 | 64 | 6 | 3.0 | 10.0 | 0.00 | 0.00 | 0.00 | 54 | 1015.1 |
| 20260506215324 | 64 | 57 | 3.0 | 10.0 | 0.00 | 0.00 | 0.00 | 54 | 1015.1 |
| 20260506214820 | 64 | 41 | 3.0 | 7.0 | 0.00 | 0.00 | 0.00 | 54 | 1015.3 |
| 20260506214317 | 64 | 69 | 2.0 | 7.0 | 0.00 | 0.00 | 0.00 | 55 | 1015.3 |
| 20260506213816 | 64 | 52 | 5.0 | 9.0 | 0.00 | 0.00 | 0.00 | 54 | 1015.2 |
| 20260506213312 | 63 | 10 | 6.0 | 13.0 | 0.00 | 0.00 | 0.00 | 55 | 1015.1 |
| 20260506212810 | 64 | 25 | 6.0 | 11.0 | 0.00 | 0.00 | 0.00 | 54 | 1015.4 |
| 20260506212307 | 64 | 42 | 3.0 | 11.0 | 0.00 | 0.00 | 0.00 | 54 | 1015.5 |
| 20260506211800 | 64 | 66 | 8.0 | 13.0 | 0.00 | 0.00 | 0.00 | 53 | 1015.5 |
| 20260506211257 | 62 | 48 | 3.0 | 6.0 | 0.00 | 0.00 | 0.00 | 56 | 1015.5 |
| 20260506210754 | 62 | 30 | 3.0 | 13.0 | 0.00 | 0.00 | 0.00 | 56 | 1015.8 |
| 20260506210251 | 64 | 7 | 4.0 | 7.0 | 0.00 | 0.00 | 0.00 | 55 | 1015.5 |
| 20260506205748 | 64 | 59 | 5.0 | 8.0 | 0.00 | 0.00 | 0.00 | 55 | 1015.6 |
| 20260506205244 | 63 | 357 | 7.0 | 8.0 | 0.00 | 0.00 | 0.00 | 56 | 1015.7 |
| 20260506204741 | 63 | 347 | 2.0 | 8.0 | 0.00 | 0.00 | 0.00 | 56 | 1015.5 |
| 20260506204238 | 62 | 29 | 4.0 | 8.0 | 0.00 | 0.00 | 0.00 | 57 | 1015.7 |
| 20260506203736 | 64 | 31 | 4.0 | 8.0 | 0.00 | 0.00 | 0.00 | 55 | 1015.9 |
| 20260506203233 | 62 | 11 | 5.0 | 7.0 | 0.00 | 0.00 | 0.00 | 55 | 1015.7 |
| 20260506202730 | 62 | 12 | 4.0 | 10.0 | 0.00 | 0.00 | 0.00 | 58 | 1015.9 |
| 20260506202226 | 62 | 356 | 9.0 | 11.0 | 0.00 | 0.00 | 0.00 | 56 | 1015.6 |
| 20260506201723 | 63 | 36 | 7.0 | 11.0 | 0.00 | 0.00 | 0.00 | 56 | 1015.9 |
| 20260506201220 | 63 | 25 | 1.0 | 13.0 | 0.00 | 0.00 | 0.00 | 58 | 1015.8 |
| 20260506200717 | 62 | 353 | 5.0 | 9.0 | 0.00 | 0.00 | 0.00 | 56 | 1015.9 |
| 20260506200214 | 62 | 342 | 4.0 | 14.0 | 0.00 | 0.00 | 0.00 | 57 | 1015.8 |
| 20260506195710 | 62 | 17 | 8.0 | 18.0 | 0.00 | 0.00 | 0.00 | 55 | 1015.8 |
| 20260506195207 | 62 | 55 | 2.0 | 13.0 | 0.00 | 0.00 | 0.00 | 56 | 1015.7 |
| 20260506194704 | 63 | 21 | 4.0 | 10.0 | 0.00 | 0.00 | 0.00 | 56 | 1015.7 |
| 20260506194201 | 62 | 359 | 10.0 | 13.0 | 0.00 | 0.00 | 0.00 | 55 | 1015.8 |
| 20260506193658 | 63 | 25 | 5.0 | 15.0 | 0.00 | 0.00 | 0.00 | 56 | 1015.8 |
| 20260506193155 | 63 | 22 | 5.0 | 9.0 | 0.00 | 0.00 | 0.00 | 56 | 1015.8 |
| 20260506192652 | 62 | 17 | 5.0 | 14.0 | 0.00 | 0.00 | 0.00 | 56 | 1015.8 |
| 20260506192148 | 64 | 40 | 4.0 | 14.0 | 0.00 | 0.00 | 0.00 | 56 | 1016.2 |
| 20260506191645 | 63 | 353 | 3.0 | 10.0 | 0.00 | 0.00 | 0.00 | 56 | 1016.0 |
| 20260506191141 | 62 | 10 | 8.0 | 11.0 | 0.00 | 0.00 | 0.00 | 55 | 1016.1 |
| 20260506190639 | 63 | 13 | 4.0 | 8.0 | 0.00 | 0.00 | 0.00 | 55 | 1016.0 |
| 20260506190135 | 62 | 32 | 7.0 | 14.0 | 0.00 | 0.00 | 0.00 | 55 | 1016.1 |
| 20260506185632 | 61 | 341 | 5.0 | 14.0 | 0.00 | 0.00 | 0.00 | 57 | 1015.9 |
| 20260506185128 | 62 | 356 | 8.0 | 9.0 | 0.00 | 0.00 | 0.00 | 56 | 1016.0 |
| 20260506184626 | 63 | 36 | 5.0 | 10.0 | 0.00 | 0.00 | 0.00 | 55 | 1016.2 |
| 20260506184123 | 62 | 61 | 7.0 | 11.0 | 0.00 | 0.00 | 0.00 | 55 | 1016.2 |
| 20260506183620 | 61 | 335 | 6.0 | 7.0 | 0.00 | 0.00 | 0.00 | 57 | 1015.9 |
| 20260506183116 | 62 | 30 | 6.0 | 9.0 | 0.00 | 0.00 | 0.00 | 55 | 1016.4 |
| 20260506182614 | 61 | 123 | 4.0 | 11.0 | 0.00 | 0.00 | 0.00 | 57 | 1016.2 |
| 20260506182110 | 60 | 45 | 2.0 | 8.0 | 0.00 | 0.00 | 0.00 | 57 | 1016.2 |
| 20260506181608 | 62 | 50 | 5.0 | 9.0 | 0.00 | 0.00 | 0.00 | 56 | 1016.3 |
| 20260506181105 | 60 | 20 | 3.0 | 11.0 | 0.00 | 0.00 | 0.00 | 58 | 1016.7 |
| 20260506180602 | 61 | 41 | 6.0 | 13.0 | 0.00 | 0.00 | 0.00 | 57 | 1016.6 |
| 20260506180058 | 60 | 49 | 3.0 | 10.0 | 0.00 | 0.00 | 0.00 | 57 | 1016.2 |
| 20260506175554 | 60 | 25 | 7.0 | 13.0 | 0.00 | 0.00 | 0.00 | 56 | 1016.8 |
| 20260506175051 | 60 | 48 | 5.0 | 11.0 | 0.00 | 0.00 | 0.00 | 57 | 1017.0 |
| 20260506174550 | 59 | 94 | 7.0 | 10.0 | 0.00 | 0.00 | 0.00 | 57 | 1017.1 |
| 20260506174045 | 62 | 342 | 6.0 | 11.0 | 0.00 | 0.00 | 0.00 | 56 | 1016.9 |
| 20260506173543 | 59 | 69 | 5.0 | 11.0 | 0.00 | 0.00 | 0.00 | 59 | 1016.9 |
| 20260506173040 | 59 | 66 | 6.0 | 10.0 | 0.00 | 0.00 | 0.00 | 62 | 1017.3 |
| 20260506172537 | 58 | 359 | 3.0 | 11.0 | 0.00 | 0.00 | 0.00 | 62 | 1017.1 |
| 20260506172033 | 58 | 42 | 6.0 | 9.0 | 0.00 | 0.00 | 0.00 | 61 | 1017.3 |
| 20260506171531 | 59 | 47 | 9.0 | 11.0 | 0.00 | 0.00 | 0.00 | 59 | 1017.3 |
| 20260506171028 | 58 | 78 | 7.0 | 13.0 | 0.00 | 0.00 | 0.00 | 60 | 1017.2 |
| 20260506170526 | 57 | 9 | 4.0 | 13.0 | 0.00 | 0.00 | 0.00 | 62 | 1017.0 |
| 20260506170018 | 59 | 321 | 6.0 | 11.0 | 0.00 | 0.00 | 0.00 | 61 | 1017.1 |
| 20260506165516 | 57 | 46 | 7.0 | 10.0 | 0.00 | 0.00 | 0.00 | 62 | 1017.1 |
| 20260506165011 | 57 | 42 | 3.0 | 8.0 | 0.00 | 0.00 | 0.00 | 63 | 1017.0 |
| 20260506164508 | 57 | 82 | 3.0 | 10.0 | 0.00 | 0.00 | 0.00 | 64 | 1017.2 |
| 20260506164006 | 56 | 59 | 7.0 | 11.0 | 0.00 | 0.00 | 0.00 | 65 | 1017.2 |
| 20260506163501 | 56 | 94 | 5.0 | 11.0 | 0.00 | 0.00 | 0.00 | 64 | 1017.4 |
| 20260506162956 | 55 | 58 | 4.0 | 9.0 | 0.00 | 0.00 | 0.00 | 67 | 1017.3 |
| 20260506162454 | 55 | 288 | 5.0 | 11.0 | 0.00 | 0.00 | 0.00 | 67 | 1017.4 |
| 20260506161951 | 55 | 73 | 3.0 | 11.0 | 0.00 | 0.00 | 0.00 | 67 | 1017.1 |
| 20260506161449 | 55 | 87 | 5.0 | 13.0 | 0.00 | 0.00 | 0.00 | 66 | 1017.4 |
| 20260506160941 | 55 | 83 | 5.0 | 10.0 | 0.00 | 0.00 | 0.00 | 67 | 1017.3 |
| 20260506160438 | 54 | 29 | 2.0 | 8.0 | 0.00 | 0.00 | 0.00 | 69 | 1017.5 |
| 20260506155935 | 54 | 35 | 5.0 | 11.0 | 0.00 | 0.00 | 0.00 | 69 | 1017.2 |
| 20260506155434 | 53 | 296 | 5.0 | 9.0 | 0.00 | 0.00 | 0.00 | 70 | 1017.3 |
| 20260506153605 | 52 | 79 | 6.0 | 11.0 | 0.00 | 0.00 | 0.00 | 73 | 1017.3 |
| 20260506153102 | 52 | 6 | 4.0 | 10.0 | 0.00 | 0.00 | 0.00 | 73 | 1017.3 |
| 20260506152559 | 52 | 0 | 4.0 | 11.0 | 0.00 | 0.00 | 0.00 | 73 | 1016.9 |
| 20260506152057 | 52 | 44 | 6.0 | 9.0 | 0.00 | 0.00 | 0.00 | 73 | 1016.9 |
| 20260506151555 | 52 | 35 | 6.0 | 10.0 | 0.00 | 0.00 | 0.00 | 73 | 1017.0 |
| 20260506151052 | 52 | 19 | 8.0 | 14.0 | 0.00 | 0.00 | 0.00 | 73 | 1016.8 |
| 20260506150548 | 52 | 11 | 4.0 | 11.0 | 0.00 | 0.00 | 0.00 | 73 | 1016.7 |
| 20260506150045 | 53 | 340 | 3.0 | 9.0 | 0.00 | 0.00 | 0.00 | 73 | 1016.7 |
| 20260506145542 | 52 | 328 | 5.0 | 10.0 | 0.00 | 0.00 | 0.00 | 74 | 1016.6 |
| 20260506145039 | 51 | 318 | 7.0 | 14.0 | 0.00 | 0.00 | 0.00 | 75 | 1016.3 |
| 20260506144536 | 51 | 324 | 3.0 | 11.0 | 0.00 | 0.00 | 0.00 | 75 | 1016.1 |
| 20260506144033 | 51 | 53 | 4.0 | 11.0 | 0.00 | 0.00 | 0.00 | 76 | 1016.1 |
| 20260506143531 | 51 | 41 | 4.0 | 14.0 | 0.00 | 0.00 | 0.00 | 77 | 1016.1 |
| 20260506143029 | 51 | 335 | 9.0 | 16.0 | 0.00 | 0.00 | 0.00 | 77 | 1016.0 |
| 20260506142526 | 50 | 1 | 7.0 | 15.0 | 0.00 | 0.00 | 0.00 | 77 | 1015.9 |
| 20260506142024 | 50 | 343 | 6.0 | 14.0 | 0.00 | 0.00 | 0.00 | 77 | 1015.9 |
| 20260506141522 | 50 | 16 | 5.0 | 14.0 | 0.00 | 0.00 | 0.00 | 78 | 1015.8 |
| 20260506141020 | 50 | 41 | 6.0 | 10.0 | 0.00 | 0.00 | 0.00 | 78 | 1016.0 |
| 20260506140517 | 50 | 84 | 8.0 | 14.0 | 0.00 | 0.00 | 0.00 | 78 | 1016.1 |
| 20260506140014 | 50 | 47 | 6.0 | 14.0 | 0.00 | 0.00 | 0.00 | 79 | 1016.0 |
| 20260506135511 | 50 | 51 | 9.0 | 13.0 | 0.00 | 0.00 | 0.00 | 79 | 1016.2 |
| 20260506135007 | 50 | 6 | 7.0 | 13.0 | 0.00 | 0.00 | 0.00 | 80 | 1016.0 |
| 20260506134503 | 50 | 42 | 4.0 | 8.0 | 0.00 | 0.00 | 0.00 | 81 | 1016.0 |
| 20260506134000 | 50 | 9 | 5.0 | 11.0 | 0.00 | 0.00 | 0.00 | 80 | 1016.2 |
| 20260506133457 | 50 | 42 | 8.0 | 13.0 | 0.00 | 0.00 | 0.00 | 80 | 1016.1 |
| 20260506132954 | 50 | 44 | 7.0 | 14.0 | 0.00 | 0.00 | 0.00 | 80 | 1016.3 |
| 20260506132451 | 50 | 53 | 5.0 | 16.0 | 0.00 | 0.00 | 0.00 | 79 | 1016.4 |
| 20260506131948 | 50 | 56 | 5.0 | 11.0 | 0.00 | 0.00 | 0.00 | 79 | 1016.2 |
| 20260506131445 | 50 | 0 | 6.0 | 11.0 | 0.00 | 0.00 | 0.00 | 80 | 1016.3 |
| 20260506130942 | 49 | 6 | 8.0 | 16.0 | 0.00 | 0.00 | 0.00 | 81 | 1016.3 |
| 20260506130438 | 50 | 52 | 8.0 | 15.0 | 0.00 | 0.00 | 0.00 | 81 | 1016.6 |
| 20260506125936 | 49 | 5 | 5.0 | 13.0 | 0.00 | 0.00 | 0.00 | 82 | 1016.3 |
| 20260506125434 | 49 | 23 | 7.0 | 13.0 | 0.00 | 0.00 | 0.00 | 82 | 1016.0 |
| 20260506124932 | 49 | 26 | 5.0 | 11.0 | 0.00 | 0.00 | 0.00 | 82 | 1016.1 |
| 20260506124429 | 49 | 336 | 4.0 | 11.0 | 0.00 | 0.00 | 0.00 | 82 | 1016.0 |
| 20260506123927 | 49 | 50 | 9.0 | 10.0 | 0.00 | 0.00 | 0.00 | 83 | 1016.0 |
| 20260506123425 | 49 | 38 | 7.0 | 10.0 | 0.00 | 0.00 | 0.00 | 83 | 1015.8 |
| 20260506122922 | 49 | 28 | 6.0 | 10.0 | 0.00 | 0.00 | 0.00 | 84 | 1016.0 |
| 20260506122419 | 49 | 23 | 5.0 | 10.0 | 0.00 | 0.00 | 0.00 | 84 | 1015.8 |
| 20260506121918 | 49 | 334 | 6.0 | 15.0 | 0.00 | 0.00 | 0.00 | 84 | 1015.3 |
| 20260506121414 | 48 | 13 | 3.0 | 13.0 | 0.00 | 0.00 | 0.00 | 84 | 1015.0 |
| 20260506120911 | 48 | 38 | 4.0 | 11.0 | 0.00 | 0.00 | 0.00 | 84 | 1014.9 |
| 20260506120409 | 48 | 5 | 4.0 | 6.0 | 0.00 | 0.00 | 0.00 | 85 | 1015.0 |
| 20260506115906 | 48 | 356 | 4.0 | 8.0 | 0.00 | 0.00 | 0.00 | 84 | 1015.0 |
| 20260506115404 | 48 | 21 | 8.0 | 10.0 | 0.00 | 0.00 | 0.00 | 84 | 1014.9 |
| 20260506114902 | 48 | 26 | 7.0 | 10.0 | 0.00 | 0.00 | 0.00 | 83 | 1014.8 |
| 20260506114359 | 48 | 350 | 8.0 | 10.0 | 0.00 | 0.00 | 0.00 | 83 | 1014.9 |
| 20260506113858 | 48 | 357 | 7.0 | 14.0 | 0.00 | 0.00 | 0.00 | 83 | 1014.8 |
| 20260506113355 | 48 | 19 | 6.0 | 11.0 | 0.00 | 0.00 | 0.00 | 83 | 1015.0 |
| 20260506112851 | 48 | 2 | 3.0 | 8.0 | 0.00 | 0.00 | 0.00 | 83 | 1014.8 |
| 20260506112348 | 48 | 13 | 3.0 | 6.0 | 0.00 | 0.00 | 0.00 | 83 | 1014.6 |
| 20260506111846 | 48 | 350 | 7.0 | 10.0 | 0.00 | 0.00 | 0.00 | 83 | 1014.5 |
| 20260506111344 | 48 | 2 | 4.0 | 7.0 | 0.00 | 0.00 | 0.00 | 83 | 1014.6 |
| 20260506110841 | 48 | 32 | 3.0 | 9.0 | 0.00 | 0.00 | 0.00 | 83 | 1014.4 |
| 20260506110338 | 48 | 345 | 5.0 | 10.0 | 0.00 | 0.00 | 0.00 | 82 | 1014.4 |
| 20260506105835 | 48 | 26 | 7.0 | 13.0 | 0.00 | 0.00 | 0.00 | 82 | 1014.5 |
| 20260506105331 | 48 | 26 | 5.0 | 7.0 | 0.00 | 0.00 | 0.00 | 83 | 1014.2 |
| 20260506104829 | 48 | 57 | 5.0 | 9.0 | 0.00 | 0.00 | 0.00 | 82 | 1015.0 |
| 20260506104326 | 48 | 344 | 5.0 | 7.0 | 0.00 | 0.00 | 0.00 | 82 | 1015.2 |
| 20260506103824 | 48 | 25 | 5.0 | 10.0 | 0.00 | 0.00 | 0.00 | 82 | 1015.2 |
| 20260506103321 | 48 | 289 | 7.0 | 11.0 | 0.00 | 0.00 | 0.00 | 81 | 1015.0 |
| 20260506102819 | 48 | 30 | 7.0 | 9.0 | 0.00 | 0.00 | 0.00 | 81 | 1015.0 |
| 20260506102316 | 49 | 350 | 6.0 | 10.0 | 0.00 | 0.00 | 0.00 | 81 | 1015.1 |
| 20260506101814 | 48 | 333 | 5.0 | 11.0 | 0.00 | 0.00 | 0.00 | 81 | 1014.8 |
| 20260506101309 | 49 | 355 | 3.0 | 7.0 | 0.00 | 0.00 | 0.00 | 80 | 1014.8 |
| 20260506100808 | 49 | 28 | 9.0 | 11.0 | 0.00 | 0.00 | 0.00 | 80 | 1015.0 |
| 20260506100305 | 49 | 23 | 6.0 | 8.0 | 0.00 | 0.00 | 0.00 | 79 | 1015.1 |
| 20260506095804 | 49 | 9 | 3.0 | 7.0 | 0.00 | 0.00 | 0.00 | 80 | 1014.8 |
| 20260506095300 | 48 | 18 | 3.0 | 9.0 | 0.00 | 0.00 | 0.00 | 79 | 1015.0 |
| 20260506094757 | 48 | 28 | 4.0 | 9.0 | 0.00 | 0.00 | 0.00 | 79 | 1014.7 |
| 20260506094255 | 49 | 356 | 4.0 | 9.0 | 0.00 | 0.00 | 0.00 | 78 | 1014.8 |
| 20260506093753 | 49 | 355 | 4.0 | 5.0 | 0.00 | 0.00 | 0.00 | 78 | 1014.8 |
| 20260506093250 | 49 | 35 | 5.0 | 8.0 | 0.00 | 0.00 | 0.00 | 78 | 1014.6 |
| 20260506092749 | 49 | 0 | 1.0 | 8.0 | 0.00 | 0.00 | 0.00 | 78 | 1014.3 |
| 20260506092246 | 49 | 330 | 5.0 | 11.0 | 0.00 | 0.00 | 0.00 | 77 | 1014.4 |
| 20260506091743 | 49 | 358 | 5.0 | 8.0 | 0.00 | 0.00 | 0.00 | 77 | 1014.3 |
| 20260506091240 | 49 | 22 | 1.0 | 5.0 | 0.00 | 0.00 | 0.00 | 77 | 1014.1 |
| 20260506090738 | 49 | 13 | 3.0 | 6.0 | 0.00 | 0.00 | 0.00 | 77 | 1014.0 |
| 20260506090235 | 49 | 21 | 5.0 | 7.0 | 0.00 | 0.00 | 0.00 | 76 | 1014.2 |
| 20260506085732 | 49 | 16 | 7.0 | 9.0 | 0.00 | 0.00 | 0.00 | 76 | 1014.3 |
| 20260506085228 | 49 | 49 | 2.0 | 9.0 | 0.00 | 0.00 | 0.00 | 76 | 1014.1 |
| 20260506084725 | 49 | 42 | 6.0 | 10.0 | 0.00 | 0.00 | 0.00 | 76 | 1013.7 |
| 20260506084221 | 49 | 53 | 5.0 | 8.0 | 0.00 | 0.00 | 0.00 | 76 | 1013.7 |
| 20260506083718 | 49 | 22 | 5.0 | 10.0 | 0.00 | 0.00 | 0.00 | 76 | 1013.6 |
| 20260506083216 | 49 | 325 | 4.0 | 11.0 | 0.00 | 0.00 | 0.00 | 75 | 1013.6 |
| 20260506082713 | 49 | 14 | 4.0 | 9.0 | 0.00 | 0.00 | 0.00 | 75 | 1013.6 |
| 20260506082208 | 49 | 44 | 6.0 | 10.0 | 0.00 | 0.00 | 0.00 | 74 | 1013.0 |
| 20260506081706 | 49 | 355 | 7.0 | 8.0 | 0.00 | 0.00 | 0.00 | 74 | 1013.0 |
| 20260506081204 | 49 | 23 | 4.0 | 8.0 | 0.00 | 0.00 | 0.00 | 74 | 1013.0 |
| 20260506080701 | 49 | 10 | 7.0 | 9.0 | 0.00 | 0.00 | 0.00 | 75 | 1013.2 |
| 20260506080157 | 49 | 349 | 3.0 | 9.0 | 0.00 | 0.00 | 0.00 | 74 | 1012.9 |
| 20260506073142 | 50 | 72 | 3.0 | 10.0 | 0.00 | 0.00 | 0.00 | 73 | 1012.3 |
| 20260506072638 | 50 | 355 | 5.0 | 10.0 | 0.00 | 0.00 | 0.00 | 73 | 1012.2 |
| 20260506072136 | 50 | 35 | 6.0 | 11.0 | 0.00 | 0.00 | 0.00 | 72 | 1012.4 |
| 20260506071633 | 50 | 65 | 4.0 | 8.0 | 0.00 | 0.00 | 0.00 | 73 | 1012.6 |
| 20260506071131 | 50 | 42 | 6.0 | 9.0 | 0.00 | 0.00 | 0.00 | 73 | 1012.2 |
| 20260506070628 | 50 | 13 | 5.0 | 8.0 | 0.00 | 0.00 | 0.00 | 73 | 1012.5 |
| 20260506070125 | 50 | 2 | 3.0 | 7.0 | 0.00 | 0.00 | 0.00 | 73 | 1012.5 |
| 20260506062103 | 50 | 60 | 8.0 | 14.0 | 0.00 | 0.00 | 0.00 | 71 | 1012.4 |
| 20260506061558 | 50 | 8 | 3.0 | 11.0 | 0.00 | 0.00 | 0.00 | 71 | 1012.3 |
| 20260506061056 | 50 | 97 | 11.0 | 17.0 | 0.00 | 0.00 | 0.00 | 69 | 1012.7 |
| 20260506060554 | 50 | 7 | 5.0 | 9.0 | 0.00 | 0.00 | 0.00 | 69 | 1012.7 |
| 20260506051023 | 50 | 72 | 7.0 | 10.0 | 0.00 | 0.00 | 0.00 | 75 | 1012.4 |
| 20260506050521 | 50 | 47 | 4.0 | 8.0 | 0.00 | 0.00 | 0.00 | 75 | 1012.4 |
| 20260506045011 | 50 | 352 | 6.0 | 14.0 | 0.00 | 0.00 | 0.00 | 77 | 1012.0 |
| 20260506044509 | 50 | 44 | 4.0 | 17.0 | 0.00 | 0.00 | 0.00 | 77 | 1012.1 |
| 20260506044005 | 50 | 57 | 7.0 | 11.0 | 0.00 | 0.00 | 0.00 | 78 | 1012.4 |
| 20260506043503 | 50 | 46 | 3.0 | 11.0 | 0.00 | 0.00 | 0.00 | 78 | 1012.6 |
| 20260506043001 | 50 | 2 | 5.0 | 11.0 | 0.00 | 0.00 | 0.00 | 79 | 1012.4 |
| 20260506042500 | 50 | 349 | 8.0 | 13.0 | 0.00 | 0.00 | 0.00 | 80 | 1012.7 |
| 20260506041957 | 50 | 73 | 7.0 | 14.0 | 0.00 | 0.00 | 0.00 | 80 | 1012.9 |
| 20260506041455 | 50 | 63 | 2.0 | 8.0 | 0.00 | 0.00 | 0.00 | 81 | 1012.7 |
| 20260506040952 | 50 | 26 | 5.0 | 9.0 | 0.00 | 0.00 | 0.00 | 81 | 1012.6 |
| 20260506040450 | 50 | 341 | 7.0 | 11.0 | 0.00 | 0.00 | 0.00 | 81 | 1012.4 |
| 20260506035946 | 50 | 66 | 6.0 | 10.0 | 0.00 | 0.00 | 0.00 | 81 | 1012.6 |
| 20260506035443 | 50 | 32 | 8.0 | 11.0 | 0.00 | 0.00 | 0.00 | 81 | 1012.6 |
| 20260506034939 | 50 | 351 | 10.0 | 16.0 | 0.00 | 0.00 | 0.00 | 81 | 1012.3 |
| 20260506034438 | 50 | 55 | 7.0 | 10.0 | 0.00 | 0.00 | 0.00 | 81 | 1012.6 |
| 20260506033934 | 50 | 22 | 7.0 | 13.0 | 0.00 | 0.00 | 0.00 | 81 | 1012.4 |
| 20260506033432 | 50 | 97 | 7.0 | 20.0 | 0.00 | 0.00 | 0.00 | 82 | 1012.2 |
| 20260506032928 | 50 | 9 | 8.0 | 14.0 | 0.00 | 0.00 | 0.00 | 83 | 1012.1 |
| 20260506032425 | 50 | 19 | 7.0 | 15.0 | 0.00 | 0.00 | 0.00 | 83 | 1012.1 |
| 20260506031922 | 50 | 37 | 9.0 | 13.0 | 0.00 | 0.00 | 0.00 | 83 | 1012.0 |
| 20260506031419 | 50 | 348 | 4.0 | 10.0 | 0.00 | 0.00 | 0.00 | 84 | 1011.9 |
| 20260506030917 | 50 | 344 | 5.0 | 13.0 | 0.00 | 0.00 | 0.00 | 84 | 1011.7 |
| 20260506030415 | 50 | 71 | 6.0 | 16.0 | 0.00 | 0.00 | 0.00 | 85 | 1011.5 |
| 20260506025911 | 49 | 63 | 9.0 | 13.0 | 0.00 | 0.00 | 0.00 | 85 | 1011.4 |
| 20260506025408 | 50 | 1 | 5.0 | 10.0 | 0.00 | 0.00 | 0.00 | 85 | 1011.4 |
| 20260506024905 | 49 | 58 | 9.0 | 17.0 | 0.00 | 0.00 | 0.00 | 85 | 1011.4 |
| 20260506024402 | 50 | 20 | 11.0 | 14.0 | 0.00 | 0.00 | 0.00 | 85 | 1011.4 |
| 20260506023857 | 49 | 20 | 5.0 | 15.0 | 0.00 | 0.00 | 0.00 | 85 | 1010.8 |
| 20260506023355 | 49 | 73 | 10.0 | 14.0 | 0.00 | 0.00 | 0.00 | 85 | 1011.2 |
| 20260506022851 | 49 | 354 | 5.0 | 17.0 | 0.00 | 0.00 | 0.00 | 85 | 1011.4 |